Location: Lake Arresoe
(56.0000°N, 12.5000°E)
Time: 06:22:43
(UTC+02:00)

Okean 3 - Pass Details

Date: 23 August 2020
Orbit: 577 x 600 km, 82.5° (Epoch: 21 September)

Event Time Altitude Azimuth Distance (km) Brightness Sun altitude
Rises 23:25:42 0° 334° (NNW) 2,865 8.6 -19.4°
Reaches altitude 10° 23:29:12 10° 304° (NW) 1,955 7.0 -19.6°
Maximum altitude 23:30:52 12° 281° (W) 1,816 6.4 -19.7°
Drops below altitude 10° 23:32:33 10° 258° (WSW) 1,949 6.3 -19.8°
Enters shadow 23:35:33 - 231° (SW) 2,689 6.7 -20.0°
